Location: Huppendorf
(49.9333°N, 11.1500°E)
Time: 20:10:15
(UTC+00:00)

STARLINK-1059 - Pass Details

Date: 27 February 2020
Orbit: 549 x 550 km, 53.0° (Epoch: 07 April)

Event Time Altitude Azimuth Distance (km) Brightness Sun altitude
Rises 18:49:37 0° 269° (W) 2,740 8.7 -19.4°
Reaches altitude 10° 18:51:53 10° 273° (W) 1,851 7.5 -19.8°
Maximum altitude 18:56:02 58° 353° (N) 664 4.0 -20.4°
Enters shadow 18:57:04 44° 45° (NE) 793 4.1 -20.6°
